Location: Albany
(35.0000°S, 118.0000°E)
Time: 09:17:17
(UTC-04:00)

Amateur Radio Satellites - All Passes

Search period start: 31 August 2015 08:47
Search period end: 01 September 2015 08:47
Location: Albany, 35.0000°S, 118.0000°E

Satellite Date Start Highest point End Downlink Frequencies (MHz)
Time Altitude Azimuth
Cosmos 2504 31 Aug 08:50:06 08:54:20 17° 112° (ESE) 08:59:06 435.465 / 435.565
PHONESAT 2.4 31 Aug 08:51:58 08:55:17 36° 171° (S) 08:58:36 2401.200-2431.200
CANX-2 31 Aug 08:52:32 08:56:53 64° 256° (WSW) 09:01:09 2200.000
GOMX 1 31 Aug 08:52:48 08:56:29 28° 252° (WSW) 09:00:02 467.674
DOVE 4 31 Aug 09:09:50 09:13:36 31° 253° (WSW) 09:17:19 437.250
TIGRISAT 31 Aug 09:10:48 09:14:07 23° 109° (ESE) 09:17:33 435.000
ISS 31 Aug 09:12:33 09:15:15 23° 213° (SSW) 09:17:57 145.825
HO-68 31 Aug 09:15:22 09:22:31 65° 252° (WSW) 09:29:34 435.675
SEEDS 31 Aug 09:15:31 09:19:43 48° 255° (WSW) 09:23:51 437.485
Oscar 11 31 Aug 09:16:57 09:21:10 43° 82° (E) 09:25:22 145.826/435.025
YUBILEINY 31 Aug 09:22:36 09:30:08 32° 267° (W) 09:37:25 435.215
ANTELSAT 31 Aug 09:26:53 09:30:49 36° 107° (ESE) 09:34:49 437.575/2403.000
SO-50 31 Aug 09:35:06 09:39:20 45° 123° (ESE) 09:43:39 436.795
COMPASS 1 31 Aug 09:38:57 09:42:51 33° 253° (WSW) 09:46:40 437.405
AAUSAT CUBESAT 2 31 Aug 09:49:56 09:53:41 29° 252° (WSW) 09:57:22 437.432
CUBEBUG 2 31 Aug 09:55:06 09:59:21 58° 256° (WSW) 10:03:40 437.445
ZACube-1 31 Aug 09:58:13 10:02:34 85° 78° (ENE) 10:06:57 437.345
POLYITAN 1 31 Aug 09:59:15 10:02:56 29° 108° (ESE) 10:06:42 437.675
CINEMA 3 31 Aug 10:00:54 10:04:12 21° 251° (WSW) 10:07:25 145.822/145.860
POPSAT HIP 1 31 Aug 10:02:05 10:05:50 31° 108° (ESE) 10:09:39 437.405
DUCHIFAT 1 31 Aug 10:03:12 10:06:56 30° 108° (ESE) 10:10:43 145.980
UWE-3 31 Aug 10:03:33 10:07:49 61° 256° (WSW) 10:12:10 435.000/436.395/437.385
FUNcube-1 31 Aug 10:03:57 10:08:18 85° 257° (WSW) 10:12:41 145.935
Cosmos 2491 31 Aug 10:05:50 10:13:30 30° 251° (WSW) 10:20:58 435.465 / 435.565
AUBIESAT-1 31 Aug 10:06:45 10:10:03 61° 285° (WNW) 10:13:25 437.475
PCSat 31 Aug 10:07:13 10:11:51 28° 126° (SE) 10:16:31 145.827
M-CUBED/EXP-1 PRIME 31 Aug 10:11:37 10:14:45 40° 284° (WNW) 10:17:58 437.505
BUGSAT 1 31 Aug 10:14:18 10:17:46 25° 109° (ESE) 10:21:18 437.445
UNISAT 6 31 Aug 10:17:31 10:21:45 54° 280° (W) 10:26:00 437.425
QB50P2 31 Aug 10:18:25 10:22:33 51° 105° (ESE) 10:26:45 145.880/145.840
DELFI C3 31 Aug 10:18:48 10:22:49 49° 255° (WSW) 10:26:47 145.870
NANOSAT C BR1 31 Aug 10:20:00 10:24:08 50° 106° (ESE) 10:28:18 145.865
PHONESAT 2.4 31 Aug 10:29:51 10:33:23 76° 334° (NNW) 10:36:53 2401.200-2431.200
QB50P1 31 Aug 10:33:13 10:37:29 76° 103° (ESE) 10:41:47 145.935-145.965
Cosmos 2504 31 Aug 10:40:08 10:47:15 72° 274° (W) 10:54:46 435.465 / 435.565
DX 1 31 Aug 10:43:52 10:48:12 54° 80° (E) 10:52:28 434.975-435.025
TIGRISAT 31 Aug 10:47:09 10:50:47 25° 275° (W) 10:54:20 435.000
ESTCUBE 1 31 Aug 10:47:44 10:51:38 28° 85° (E) 10:55:33 437.505/2401.250
HUMSAT D 31 Aug 10:49:06 10:53:20 64° 256° (WSW) 10:57:32 437.325/437.525
Oscar 11 31 Aug 10:54:29 10:57:00 15° 248° (WSW) 10:59:20 145.826/435.025
UKube-1 31 Aug 10:57:29 11:01:53 72° 78° (ENE) 11:06:12 .
CUSAT 1 31 Aug 11:01:01 11:03:48 58° 276° (W) 11:06:22 437.405
50 SAT 31 Aug 11:02:16 11:06:15 73° 79° (E) 11:10:13 437.505
AISAT 31 Aug 11:03:10 11:07:35 58° 80° (E) 11:11:56 437.250
ANTELSAT 31 Aug 11:05:03 11:07:47 16° 272° (W) 11:10:19 437.575/2403.000
CUBEBUG 1 31 Aug 11:06:06 11:10:08 35° 83° (E) 11:14:09 437.445
HO-68 31 Aug 11:08:02 11:09:06 10° 236° (SW) 11:09:36 435.675
SO-50 31 Aug 11:16:56 11:19:32 15° 291° (WNW) 11:21:57 436.795
DANDE 31 Aug 11:24:20 11:27:23 52° 276° (W) 11:30:00 436.750
VELOX 1 31 Aug 11:31:33 11:36:01 67° 256° (WSW) 11:40:23 145.980
POLYITAN 1 31 Aug 11:35:44 11:38:53 19° 274° (W) 11:41:55 437.675
POPSAT HIP 1 31 Aug 11:38:42 11:41:45 18° 273° (W) 11:44:41 437.405
DUCHIFAT 1 31 Aug 11:39:44 11:42:48 18° 273° (W) 11:45:43 145.980
BUGSAT 1 31 Aug 11:49:47 11:53:11 22° 275° (W) 11:56:30 437.445
PCSat 31 Aug 11:50:23 11:55:20 35° 290° (WNW) 12:00:10 145.827
QB50P2 31 Aug 11:57:29 11:58:48 11° 270° (W) 11:59:50 145.880/145.840
Oscar 19 31 Aug 11:58:50 12:03:00 26° 111° (ESE) 12:07:18 437.125/150
NANOSAT C BR1 31 Aug 11:58:56 12:00:19 11° 270° (W) 12:01:23 145.865
PHONESAT 2.4 31 Aug 12:09:07 12:10:55 13° 322° (NW) 12:12:37 2401.200-2431.200
TISAT 1 31 Aug 12:10:49 12:14:34 30° 83° (E) 12:18:18 437.305
GONETS M04 31 Aug 12:13:35 12:19:42 21° 113° (ESE) 12:26:11
DX 1 31 Aug 12:22:15 12:24:00 12° 246° (WSW) 12:25:29 434.975-435.025
ESTCUBE 1 31 Aug 12:24:40 12:28:24 24° 250° (WSW) 12:31:58 437.505/2401.250
Gurwin Techsat 1B 31 Aug 12:35:49 12:39:16 18° 113° (ESE) 12:42:57 435.225
SPROUT 31 Aug 12:39:47 12:44:05 60° 256° (WSW) 12:48:19 437.525
AISAT 31 Aug 12:42:07 12:43:41 11° 246° (WSW) 12:44:58 437.250
CUBEBUG 1 31 Aug 12:43:15 12:46:14 17° 249° (WSW) 12:49:02 437.445
BEESAT 31 Aug 12:44:53 12:46:19 11° 91° (E) 12:48:04 436.000
JUGNU 31 Aug 12:45:32 12:48:49 15° 9° (N) 12:52:09 437.505
ITAMSAT 1 31 Aug 12:56:29 13:00:31 24° 112° (ESE) 13:04:43 435.822/435.867
SWISSCUBE 31 Aug 13:08:41 13:12:35 24° 85° (E) 13:16:33 437.505
Cosmos 2499 31 Aug 13:30:04 13:32:56 13° 115° (ESE) 13:36:27 435.465 / 435.565
Oscar 19 31 Aug 13:37:35 13:42:14 32° 277° (W) 13:46:51 437.125/150
ITUPSAT 1 31 Aug 13:46:15 13:51:04 56° 80° (E) 13:55:49 437.325
TISAT 1 31 Aug 13:47:07 13:50:07 19° 250° (WSW) 13:52:59 437.305
SRMSAT 31 Aug 13:55:06 13:57:38 13° 13° (NNE) 14:00:16 437.500
JAS-2 31 Aug 14:04:22 14:09:34 51° 106° (ESE) 14:14:40 435.910
KKS-1 31 Aug 14:04:32 14:06:05 12° 90° (E) 14:07:55 437.445
ISS 31 Aug 14:06:40 14:08:22 13° 154° (SSE) 14:10:08 145.825
GONETS M04 31 Aug 14:08:44 14:17:31 71° 274° (W) 14:26:08
HORYU 2 31 Aug 14:11:01 14:12:54 13° 113° (ESE) 14:15:02 437.375
BEESAT 3 31 Aug 14:11:30 14:15:21 62° 63° (ENE) 14:19:14 437.485
Gurwin Techsat 1B 31 Aug 14:13:42 14:18:52 50° 280° (W) 14:24:07 435.225
AO-7 31 Aug 14:19:23 14:26:50 40° 115° (ESE) 14:34:32 29.400- 29.500
BEESAT 31 Aug 14:19:50 14:24:39 62° 255° (WSW) 14:29:23 436.000
BEESAT 2 31 Aug 14:22:48 14:26:40 61° 63° (ENE) 14:30:34 435.950
JUGNU 31 Aug 14:33:11 14:37:08 18° 359° (N) 14:41:06 437.505
ITAMSAT 1 31 Aug 14:34:57 14:39:49 37° 277° (W) 14:44:41 435.822/435.867
SWISSCUBE 31 Aug 14:46:11 14:50:26 30° 251° (WSW) 14:54:35 437.505
AIST 2 31 Aug 14:56:20 14:59:36 24° 68° (ENE) 15:02:58 435.215
RS-15 31 Aug 15:04:46 15:16:37 59° 68° (ENE) 15:28:18 29.354- 29.394
Cosmos 2499 31 Aug 15:19:46 15:27:12 88° 97° (E) 15:35:07 435.465 / 435.565
STARS 31 Aug 15:21:12 15:25:34 55° 79° (E) 15:29:53 437.465
ITUPSAT 1 31 Aug 15:25:53 15:28:30 14° 246° (WSW) 15:30:53 437.325
KKS-1 31 Aug 15:38:43 15:43:05 51° 254° (WSW) 15:47:24 437.445
ISS 31 Aug 15:41:52 15:45:11 81° 316° (NW) 15:48:28 145.825
SRMSAT 31 Aug 15:42:09 15:46:08 18° 3° (N) 15:50:07 437.500
HORYU 2 31 Aug 15:44:48 15:49:08 52° 279° (W) 15:53:31 437.375
MOZHAYETS 4 31 Aug 15:48:01 15:51:53 26° 86° (E) 15:55:49
JAS-2 31 Aug 15:52:00 15:55:08 15° 271° (W) 15:57:54 435.910
BEESAT 3 31 Aug 15:52:34 15:53:43 11° 226° (SW) 15:54:40 437.485
BEESAT 2 31 Aug 16:03:49 16:05:08 11° 226° (SW) 16:06:16 435.950
AO-7 31 Aug 16:11:50 16:19:36 41° 279° (W) 16:27:21 29.400- 29.500
Cubesat XI-IV 31 Aug 16:13:57 16:15:41 12° 117° (ESE) 16:17:45 437.490
JUGNU 31 Aug 16:22:24 16:25:28 14° 349° (N) 16:28:28 437.505
AIST 2 31 Aug 16:34:42 16:38:05 24° 232° (SW) 16:41:26 435.215
CUTE-I 31 Aug 16:55:49 17:00:26 31° 110° (ESE) 17:05:11 437.470
STARS 31 Aug 16:59:47 17:01:34 12° 246° (WSW) 17:03:05 437.465
Cosmos 2499 31 Aug 17:16:20 17:19:39 13° 263° (W) 17:22:23 435.465 / 435.565
RS-15 31 Aug 17:18:12 17:29:40 42° 227° (SW) 17:40:37 29.354- 29.394
MOZHAYETS 4 31 Aug 17:25:04 17:29:03 27° 251° (WSW) 17:32:55
SRMSAT 31 Aug 17:30:55 17:34:37 17° 353° (N) 17:38:18 437.500
CUBESAT XI-V 31 Aug 17:40:29 17:44:47 34° 84° (E) 17:49:03 437.345
BRITE-PL 31 Aug 17:49:34 17:52:56 17° 111° (ESE) 17:56:27 437.365/2234.400
Cubesat XI-IV 31 Aug 17:49:46 17:55:09 81° 283° (WNW) 18:00:38 437.490
HO-68 31 Aug 17:58:33 18:00:05 11° 124° (ESE) 18:02:09 435.675
PRISM 31 Aug 18:17:49 18:19:12 12° 90° (E) 18:20:52 437.425
GOMX 1 31 Aug 18:20:04 18:23:30 19° 110° (ESE) 18:26:59 467.674
Cosmos 2491 31 Aug 18:23:31 18:29:40 21° 114° (ESE) 18:36:11 435.465 / 435.565
AIST 1 31 Aug 18:27:45 18:31:54 39° 101° (E) 18:35:59
CUTE-I 31 Aug 18:35:47 18:40:28 29° 275° (W) 18:45:07 437.470
DOVE 4 31 Aug 18:35:58 18:38:31 15° 111° (ESE) 18:41:15 437.250
O/OREOS (USA 219) 31 Aug 18:40:30 18:45:01 66° 249° (WSW) 18:49:34 437.305
STRAND 1 31 Aug 18:59:28 19:04:37 59° 80° (E) 19:09:42 437.568
CUBESAT XI-V 31 Aug 19:18:28 19:22:00 20° 249° (WSW) 19:25:22 437.345
CINEMA 3 31 Aug 19:22:52 19:25:50 18° 110° (ESE) 19:28:54 145.822/145.860
BRITE-PL 31 Aug 19:25:37 19:31:07 56° 280° (W) 19:36:20 437.365/2234.400
CUTE 1.7 + AOD 2 31 Aug 19:28:17 19:32:06 34° 107° (ESE) 19:36:01 437.475
HO-68 31 Aug 19:39:36 19:46:43 69° 108° (ESE) 19:53:55 435.675
RS-15 31 Aug 19:40:34 19:46:48 15° 196° (SSW) 19:52:33 29.354- 29.394
CANX-2 31 Aug 19:41:52 19:46:01 57° 104° (ESE) 19:50:15 2200.000
PRISM 31 Aug 19:50:52 19:54:58 46° 254° (WSW) 19:58:58 437.425
GOMX 1 31 Aug 19:56:20 20:01:22 45° 279° (W) 20:06:08 467.674
SEEDS 31 Aug 20:03:45 20:07:56 74° 103° (ESE) 20:12:12 437.485
AIST 1 31 Aug 20:06:56 20:09:11 14° 267° (W) 20:11:13
Oscar 11 31 Aug 20:09:03 20:12:24 23° 110° (ESE) 20:15:52 145.826/435.025
DOVE 4 31 Aug 20:11:08 20:15:58 51° 279° (W) 20:20:34 437.250
Cosmos 2491 31 Aug 20:18:41 20:27:32 72° 274° (W) 20:36:11 435.465 / 435.565
YUBILEINY 31 Aug 20:21:28 20:30:01 62° 88° (E) 20:38:39 435.215
COMPASS 1 31 Aug 20:26:04 20:30:13 77° 283° (WNW) 20:34:29 437.405
AAUSAT CUBESAT 2 31 Aug 20:36:30 20:40:38 68° 280° (W) 20:44:51 437.432
STRAND 1 31 Aug 20:40:20 20:43:22 15° 245° (WSW) 20:46:08 437.568
CUBEBUG 2 31 Aug 20:49:52 20:54:11 76° 104° (ESE) 20:58:28 437.445
ZACube-1 31 Aug 20:51:03 20:55:01 42° 106° (ESE) 20:59:02 437.345
FUNcube-1 31 Aug 20:56:27 21:00:30 47° 106° (ESE) 21:04:34 145.935
UWE-3 31 Aug 20:57:14 21:01:30 70° 103° (ESE) 21:05:44 435.000/436.395/437.385
CINEMA 3 31 Aug 20:58:39 21:02:50 35° 277° (W) 21:06:53 145.822/145.860
DELFI C3 31 Aug 21:02:07 21:06:04 60° 104° (ESE) 21:10:06 145.870
CUTE 1.7 + AOD 2 31 Aug 21:05:25 21:08:10 16° 272° (W) 21:10:45 437.475
Cosmos 2504 31 Aug 21:19:48 21:22:21 13° 97° (E) 21:25:28 435.465 / 435.565
HO-68 31 Aug 21:30:07 21:35:07 19° 271° (W) 21:39:44 435.675
DX 1 31 Aug 21:36:19 21:40:11 31° 108° (ESE) 21:44:10 434.975-435.025
HUMSAT D 31 Aug 21:37:20 21:41:21 55° 105° (ESE) 21:45:25 437.325/437.525
50 SAT 31 Aug 21:42:59 21:46:02 24° 108° (ESE) 21:49:12 437.505
Oscar 11 31 Aug 21:44:48 21:48:28 26° 275° (W) 21:52:06 145.826/435.025
ESTCUBE 1 31 Aug 21:44:51 21:47:54 18° 111° (ESE) 21:51:08 437.505/2401.250
UKube-1 31 Aug 21:48:57 21:53:00 39° 107° (ESE) 21:57:08 .
AUBIESAT-1 31 Aug 21:50:47 21:52:31 12° 83° (E) 21:54:32 437.475
M-CUBED/EXP-1 PRIME 31 Aug 21:55:02 21:57:47 17° 81° (E) 22:00:49 437.505
AISAT 31 Aug 21:57:36 22:01:40 35° 108° (ESE) 22:05:49 437.250
CUBEBUG 1 31 Aug 21:59:28 22:02:46 21° 110° (ESE) 22:06:12 437.445
RS-15 31 Aug 21:59:44 22:06:08 16° 160° (SSE) 22:12:45 29.354- 29.394
QB50P2 31 Aug 22:09:39 22:10:30 11° 90° (E) 22:11:40 145.880/145.840
NANOSAT C BR1 31 Aug 22:11:05 22:11:37 10° 90° (E) 22:12:27 145.865
UNISAT 6 31 Aug 22:12:26 22:16:37 38° 82° (E) 22:20:53 437.425
CUSAT 1 31 Aug 22:19:40 22:24:39 21° 87° (E) 22:29:14 437.405
YUBILEINY 31 Aug 22:20:28 22:27:32 25° 249° (WSW) 22:34:16 435.215
Cosmos 2491 31 Aug 22:21:56 22:23:04 10° 258° (WSW) 22:23:18 435.465 / 435.565
QB50P1 31 Aug 22:22:55 22:25:26 16° 88° (E) 22:28:07 145.935-145.965
VELOX 1 31 Aug 22:25:23 22:29:51 71° 104° (ESE) 22:34:23 145.980
ZACube-1 31 Aug 22:29:35 22:31:38 13° 271° (W) 22:33:27 437.345
BEESAT 3 31 Aug 22:33:51 22:36:07 15° 131° (SE) 22:38:30 437.485
FUNcube-1 31 Aug 22:35:41 22:37:09 11° 270° (W) 22:38:20 145.935
TIGRISAT 31 Aug 22:40:49 22:45:19 80° 80° (E) 22:49:52 435.000
DANDE 31 Aug 22:45:17 22:51:34 27° 88° (E) 22:57:15 436.750
BEESAT 2 31 Aug 22:45:43 22:48:01 15° 131° (SE) 22:50:27 435.950
ANTELSAT 31 Aug 22:57:56 23:02:23 62° 256° (WSW) 23:06:53 437.575/2403.000
TISAT 1 31 Aug 23:00:40 23:03:14 16° 111° (ESE) 23:05:58 437.305
Cosmos 2504 31 Aug 23:06:22 23:13:51 85° 264° (W) 23:20:59 435.465 / 435.565
DX 1 31 Aug 23:13:14 23:16:30 19° 274° (W) 23:19:39 434.975-435.025
50 SAT 31 Aug 23:17:43 23:20:33 19° 274° (W) 23:23:17 437.505
ESTCUBE 1 31 Aug 23:20:16 23:24:30 37° 277° (W) 23:28:46 437.505/2401.250
POLYITAN 1 31 Aug 23:22:53 23:27:11 89° 80° (E) 23:31:27 437.675
AUBIESAT-1 31 Aug 23:23:17 23:27:26 52° 251° (WSW) 23:31:48 437.475
POPSAT HIP 1 31 Aug 23:25:32 23:29:50 87° 254° (WSW) 23:34:04 437.405
DUCHIFAT 1 31 Aug 23:26:05 23:30:22 90° 299° (WNW) 23:34:34 145.980
UKube-1 31 Aug 23:26:39 23:29:20 15° 272° (W) 23:31:49 .
M-CUBED/EXP-1 PRIME 31 Aug 23:28:43 23:32:38 38° 250° (WSW) 23:36:47 437.505
SPROUT 31 Aug 23:30:10 23:34:28 66° 104° (ESE) 23:38:49 437.525
BUGSAT 1 31 Aug 23:34:15 23:38:20 67° 79° (E) 23:42:21 437.445
CUBEBUG 1 31 Aug 23:34:58 23:38:56 30° 276° (W) 23:42:53 437.445
AISAT 31 Aug 23:35:12 23:38:22 18° 273° (W) 23:41:23 437.250
QB50P2 31 Aug 23:42:36 23:46:46 51° 255° (WSW) 23:50:53 145.880/145.840
NANOSAT C BR1 31 Aug 23:43:40 23:47:50 52° 255° (WSW) 23:51:57 145.865
SO-50 31 Aug 23:46:43 23:50:43 32° 66° (ENE) 23:54:41 436.795
UNISAT 6 31 Aug 23:50:08 23:53:08 17° 249° (WSW) 23:56:00 437.425
QB50P1 31 Aug 23:57:32 00:01:27 35° 253° (WSW) 00:05:17 145.935-145.965
CUSAT 1 31 Aug 23:59:51 00:07:06 56° 260° (W) 00:12:51 437.405
BEESAT 3 01 Sep 00:10:28 00:14:16 43° 295° (WNW) 00:18:03 437.485
RS-15 01 Sep 00:11:34 00:22:29 50° 129° (SE) 00:33:04 29.354- 29.394
SWISSCUBE 01 Sep 00:12:31 00:15:56 20° 112° (ESE) 00:19:33 437.505
Oscar 19 01 Sep 00:15:54 00:17:03 11° 91° (E) 00:18:35 437.125/150
BEESAT 2 01 Sep 00:22:27 00:26:17 43° 295° (WNW) 00:30:07 435.950
DANDE 01 Sep 00:26:44 00:34:36 53° 259° (W) 00:41:01 436.750
TISAT 1 01 Sep 00:34:45 00:38:43 36° 278° (W) 00:42:41 437.305
PCSat 01 Sep 00:45:05 00:50:15 48° 68° (ENE) 00:55:29 145.827
ITUPSAT 1 01 Sep 00:49:44 00:54:18 44° 107° (ESE) 00:58:56 437.325
AIST 2 01 Sep 00:58:14 01:02:25 78° 120° (ESE) 01:06:37 435.215
Cosmos 2504 01 Sep 01:04:43 01:07:13 11° 245° (WSW) 01:09:05 435.465 / 435.565
GONETS M04 01 Sep 01:10:31 01:17:25 28° 95° (E) 01:24:40
BEESAT 01 Sep 01:22:41 01:27:29 79° 281° (W) 01:32:22 436.000
SO-50 01 Sep 01:27:36 01:31:15 23° 231° (SW) 01:34:47 436.795
SWISSCUBE 01 Sep 01:49:06 01:53:33 37° 277° (W) 01:58:02 437.505
Oscar 19 01 Sep 01:51:50 01:57:01 71° 255° (WSW) 02:02:09 437.125/150
STARS 01 Sep 02:14:56 02:18:51 32° 108° (ESE) 02:22:51 437.465
RS-15 01 Sep 02:24:25 02:34:45 43° 289° (WNW) 02:44:34 29.354- 29.394
AO-7 01 Sep 02:27:19 02:30:39 13° 92° (E) 02:34:45 29.400- 29.500
VERMONT LUNAR 01 Sep 02:28:03 02:31:04 51° 27° (NNE) 02:34:08 437.305
ITUPSAT 1 01 Sep 02:29:21 02:32:27 16° 272° (W) 02:35:20 437.325
PCSat 01 Sep 02:29:45 02:33:58 22° 231° (SW) 02:38:04 145.827
KKS-1 01 Sep 02:33:06 02:37:35 87° 283° (WNW) 02:42:08 437.445
Gurwin Techsat 1B 01 Sep 02:33:06 02:38:31 86° 80° (E) 02:43:53 435.225
MOZHAYETS 4 01 Sep 02:47:35 02:50:30 17° 112° (ESE) 02:53:36
ITAMSAT 1 01 Sep 02:50:43 02:56:02 80° 255° (WSW) 03:01:16 435.822/435.867
JAS-2 01 Sep 02:59:30 03:05:40 67° 79° (ENE) 03:12:38 435.910
GONETS M04 01 Sep 03:05:08 03:13:49 56° 258° (WSW) 03:22:31
PHONESAT 2.4 01 Sep 03:15:13 03:15:34 10° 39° (NE) 03:16:04 2401.200-2431.200
O/OREOS (USA 219) 01 Sep 03:16:46 03:18:24 12° 125° (SE) 03:20:16 437.305
HORYU 2 01 Sep 03:39:15 03:43:28 37° 82° (E) 03:47:40 437.375
STARS 01 Sep 03:52:09 03:55:22 19° 273° (W) 03:58:28 437.465
Cosmos 2499 01 Sep 03:52:26 03:59:58 80° 85° (E) 04:07:11 435.465 / 435.565
VERMONT LUNAR 01 Sep 04:04:39 04:07:36 37° 192° (SSW) 04:10:33 437.305
AO-7 01 Sep 04:16:16 04:24:46 84° 74° (ENE) 04:33:11 29.400- 29.500
Gurwin Techsat 1B 01 Sep 04:16:25 04:17:51 11° 243° (WSW) 04:18:55 435.225
MOZHAYETS 4 01 Sep 04:23:05 04:27:25 40° 277° (W) 04:31:48
CUBESAT XI-V 01 Sep 04:40:53 04:44:38 24° 110° (ESE) 04:48:31 437.345
JAS-2 01 Sep 04:46:17 04:50:27 18° 247° (WSW) 04:54:35 435.910
PHONESAT 2.4 01 Sep 04:49:35 04:53:02 61° 27° (NNE) 04:56:32 2401.200-2431.200
O/OREOS (USA 219) 01 Sep 04:53:51 04:58:19 59° 287° (WNW) 05:02:44 437.305
HORYU 2 01 Sep 05:16:44 05:19:50 18° 248° (WSW) 05:22:44 437.375
CUTE-I 01 Sep 05:17:19 05:20:20 16° 89° (E) 05:23:37 437.470
VERMONT LUNAR 01 Sep 05:41:40 05:44:28 29° 176° (S) 05:47:17 437.305
Cosmos 2499 01 Sep 05:49:59 05:54:03 15° 246° (WSW) 05:57:34 435.465 / 435.565
Cubesat XI-IV 01 Sep 06:10:35 06:15:55 54° 80° (E) 06:21:11 437.490
AO-7 01 Sep 06:10:51 06:16:42 20° 237° (WSW) 06:22:10 29.400- 29.500
STRAND 1 01 Sep 06:11:54 06:16:58 60° 106° (ESE) 06:22:08 437.568
CUBESAT XI-V 01 Sep 06:17:47 06:21:56 29° 275° (W) 06:26:05 437.345
PHONESAT 2.4 01 Sep 06:27:43 06:31:04 39° 191° (S) 06:34:26 2401.200-2431.200
YUBILEINY 01 Sep 06:36:40 06:43:25 25° 111° (ESE) 06:50:29 435.215
PRISM 01 Sep 06:36:56 06:41:08 79° 104° (ESE) 06:45:25 437.425
ISS 01 Sep 06:43:31 06:45:23 15° 52° (NE) 06:47:22 145.825
AIST 1 01 Sep 06:53:46 06:57:32 28° 89° (E) 07:01:24
CUTE-I 01 Sep 06:55:32 07:00:51 56° 253° (WSW) 07:06:05 437.470
HO-68 01 Sep 07:13:44 07:16:58 14° 91° (E) 07:20:43 435.675
VERMONT LUNAR 01 Sep 07:18:05 07:21:13 69° 160° (SSE) 07:24:20 437.305
Cosmos 2491 01 Sep 07:20:39 07:27:30 27° 95° (E) 07:34:44 435.465 / 435.565
CANX-2 01 Sep 07:32:09 07:34:08 13° 90° (E) 07:36:22 2200.000
BRITE-PL 01 Sep 07:34:32 07:38:50 61° 80° (E) 07:42:56 437.365/2234.400
Cubesat XI-IV 01 Sep 07:52:02 07:55:36 17° 246° (WSW) 07:58:56 437.490
SEEDS 01 Sep 07:52:31 07:55:09 16° 88° (E) 07:57:57 437.485
STRAND 1 01 Sep 07:54:00 07:56:40 13° 270° (W) 07:59:01 437.568
GOMX 1 01 Sep 08:01:42 08:05:56 69° 79° (E) 08:10:06 467.674
PHONESAT 2.4 01 Sep 08:06:09 08:09:25 33° 174° (S) 08:12:41 2401.200-2431.200
COMPASS 1 01 Sep 08:13:21 08:16:38 22° 86° (E) 08:20:01 437.405
DOVE 4 01 Sep 08:13:32 08:17:38 52° 81° (E) 08:21:47 437.250
ISS 01 Sep 08:18:23 08:21:32 42° 218° (SW) 08:24:43 145.825
SO-50 01 Sep 08:22:07 08:24:13 13° 134° (SE) 08:26:30 436.795
AAUSAT CUBESAT 2 01 Sep 08:23:09 08:26:34 24° 86° (E) 08:30:03 437.432
AIST 1 01 Sep 08:31:51 08:35:13 20° 254° (WSW) 08:38:29
ZACube-1 01 Sep 08:45:20 08:46:04 10° 90° (E) 08:47:06 437.345
